Tracking 30289 objects as of 29-Apr-2025
HD Live streaming from Space Station
objects crossing your sky now

STARLINK-33792

Track STARLINK-33792 now!
10-day predictions
STARLINK-33792 is classified as:


NORAD ID: 63506
Int'l Code: 2025-071P
Perigee: 393.3 km
Apogee: 394.5 km
Inclination: 53.2 °
Period: 92.3 minutes
Semi major axis: 6764 km
RCS: Unknown
Launch date: April 7, 2025
Source: United States (US)
Launch site: AIR FORCE WESTERN TEST RANGE (AFWTR)
Your satellite tracking list
Your tracking list is empty




NASA's NSSDC Master Catalog

Two Line Element Set (TLE):
1 63506U 25071P   25118.91668981 -.01455123  00000-0 -19499-1 0  9996
2 63506  53.1591 167.8908 0000916  79.8191 293.0739 15.60314834  4479
Source of the keplerian elements: AFSPC